Regional Weather Roundup
Issued by NWS

Home | Current Version | Previous Version | Text Only | Print | Product List | Glossary Off
Versions: 1 2 3 4 5 6 7 8 9 10 11 12 13 14 15 16 17 18 19 20 21 22 23 24 25 26 27 28 29 30 31 32 33 34 35 36 37 38 39 40 41 42 43 44 45 46 47 48 49 50

000
ASUS45 KSLC 021910
RWRUT

UTAH REGIONAL WEATHER ROUNDUP
NATIONAL WEATHER SERVICE SALT LAKE CITY UT
100 PM MDT SAT MAY 02 2015

UTZ001>011-023>025-022000-

NORTHERN UTAH

CITY           SKY/WX    TMP DP  RH WIND       PRES   REMARKS
BRIGHAM CITY   CLOUDY    69  38  31 NW9       29.93F
HILL AFB       MOSUNNY   74  38  27 VRB5      29.94F
LOGAN          PTSUNNY   68  42  38 S8        29.94F
OGDEN          MOSUNNY   76  35  22 W8        29.92F
PROVO AIRPORT  MOSUNNY   79  37  22 SW9       29.94F
SALT LAKE CITY PTSUNNY   78  34  20 W7        29.90F
VERNAL         MOSUNNY   73  36  25 E7        29.97F
WENDOVER       MOSUNNY   79  32  18 E9        29.90F
HEBER CITY     MOSUNNY   73  30  20 SW16G23   29.98F
WEST JORDAN    MOSUNNY   75  41  29 SE17      29.92F

$$

UTZ012>022-026-027-022000-

SOUTHERN/CENTRAL UTAH

CITY           SKY/WX    TMP DP  RH WIND       PRES   REMARKS
BLANDING       MOSUNNY   75  26  16 S9        30.12F
BRYCE CANYON   MOSUNNY   66  20  17 W12G22    30.16F
CEDAR CITY     PTSUNNY   76  23  14 SW8G23    30.03F
DELTA          MOSUNNY   78  21  12 SW20G26   29.96F
HANKSVILLE     MOSUNNY   81  23  12 SW3       29.96F
MILFORD        MOSUNNY   77  22  13 SW16G32   29.99F
MOAB/CYNLANDS  SUNNY     80  26  13 VRB5      29.94F
PRICE          MOSUNNY   72  24  16 S8G33     30.01F HAZE
ST GEORGE      PTCLDY    84  34  16 NW3       29.92F
KANAB          MOSUNNY   79  25  13 CALM      30.05F

$$

REGIONAL REPORTS     COLORADO/ARIZONA

CITY           SKY/WX    TMP DP  RH WIND       PRES   REMARKS
CRAIG, CO      MOSUNNY   71  37  28 W10       30.01F
GRAND JUNCTION MOSUNNY   73  36  25 VRB5      29.96F
RIFLE          MOSUNNY   78  33  19 W17       29.97F
MONTROSE       PTSUNNY   78  30  17 NW13      30.04F
CORTEZ         SUNNY     77  28  16 NW10      30.06F
PAGE, AZ       NOT AVBL
GRAND CANYON   MOSUNNY   72  18  13 VRB5      30.13F
KINGMAN        MOSUNNY   87  27  11 SW17G23   29.95F
FLAGSTAFF      PTSUNNY   70  21  15 SW12G22   30.15F

$$

REGIONAL REPORTS    NEVADA/IDAHO/WYOMING

CITY           SKY/WX    TMP DP  RH WIND       PRES   REMARKS
LAS VEGAS, NV  MOSUNNY   90  27  10 S12G20    29.81F
ELY            MOSUNNY   74  20  13 S15G24    30.03F
ELKO           SUNNY     75  26  16 SW7       29.94F
POCATELLO, ID  MOSUNNY   77  31  18 W14G21    29.89F
BURLEY         SUNNY     77  32  19 W12G20    29.86F
EVANSTON, WY   PTSUNNY   66  27  23 W25G32    30.04F
ROCK SPRINGS   MOSUNNY   68  29  23 W14G28    30.01F
KEMMERER       PTSUNNY   59  28  31 W33G45    30.07R

$$


USA.gov is the U.S. government's official web portal to all federal, state and local government web resources and services.